NOAA NWS Hourly Roundups by Site

Regional Weather Roundup for Omaha, NE

To Select Another Site Choose from List

Select Site:  

000
ASUS43 KOAX 251710
RWRNE

WEATHER ROUNDUP FOR NEBRASKA
NATIONAL WEATHER SERVICE OMAHA NE
1200 PM CDT SAT JUN 25 2022

NOTES: SATELLITE DATA IS BEING USED TO AUGMENT CLOUD COVER ABOVE
       12000 FEET.
       "FAIR" INDICATES FEW OR NO CLOUDS BELOW 12,000 FEET WITH NO
       SIGNIFICANT WEATHER AND/OR OBSTRUCTIONS TO VISIBILITY.


NEZ001>004-019>022-054>056-251800-
NEBRASKA PANHANDLE

CITY           SKY/WX    TMP DP  RH WIND       PRES   REMARKS
SCOTTSBLUFF    SUNNY     69  40  34 NW15G29   30.34S
ALLIANCE       SUNNY     67  42  40 NW20G31   30.31S
CHADRON        SUNNY     66  43  43 NW20G30   30.32R
GORDON         MOSUNNY   66  44  44 NW13      30.29S
KIMBALL        CLOUDY    58  44  61 N12G20    30.38R
SIDNEY         SUNNY     69  45  41 N16G30    30.32R
$$

NEZ057>060-069>072-079>082-251800-
SOUTHWEST NEBRASKA

CITY           SKY/WX    TMP DP  RH WIND       PRES   REMARKS
NORTH PLATTE   MOSUNNY   76  46  34 NE18G35   30.20R
IMPERIAL       PTSUNNY   71  50  47 MISG      30.26R
LEXINGTON      MOSUNNY   75  49  39 N21G32    30.16R
MCCOOK         MOSUNNY   76  50  40 N28G33    30.18R
OGALLALA       MOSUNNY   73  48  42 N13G24    30.27R
$$

NEZ005>010-023>029-035>040-094-251800-
NORTH CENTRAL NEBRASKA

CITY           SKY/WX    TMP DP  RH WIND       PRES   REMARKS
VALENTINE      SUNNY     69  47  45 NW18G31   30.22S
AINSWORTH      SUNNY     70  46  43 N22G31    30.22S
BROKEN BOW     MOSUNNY   75  44  33 N25G36    30.16R
O`NEILL        SUNNY     73  49  41 N25G31    30.15R
ORD            MOSUNNY   76  47  35 N25G38    30.12R
THEDFORD       SUNNY     69  47  45 N18G29    30.25R
$$

NEZ041-046>049-061>064-073>077-083>087-251800-
SOUTH CENTRAL NEBRASKA

CITY           SKY/WX    TMP DP  RH WIND       PRES   REMARKS
GRAND ISLAND   CLOUDY    71  58  63 N18G29    30.09R
AURORA         PTSUNNY   71  62  74 N22G30    30.07R
HASTINGS       CLOUDY    72  60  66 N24G33    30.09R
HEBRON         PTSUNNY   74  67  79 N13G22    30.00F
HOLDREGE       CLOUDY    71  55  57 N18G28    30.13R
KEARNEY        CLOUDY    73  57  57 N25G33    30.12R
YORK           PTSUNNY   72  64  78 N20G29    30.03F
$$

NEZ011>018-030>034-042>045-251800-
NORTHEAST NEBRASKA

CITY           SKY/WX    TMP DP  RH WIND       PRES   REMARKS
NORFOLK        PTSUNNY   78  61  55 NW24G31   30.05R
ALBION         MOSUNNY   73  59  61 MISG      30.07F
BLAIR          CLOUDY    76  69  78 NW9       29.98R
COLUMBUS       PTSUNNY   74  65  73 N16G23    30.06R
FREMONT        CLOUDY    78  67  69 NW17      30.01R
TEKAMAH        PTSUNNY   81  69  67 N18G26    29.97R
WAYNE          PTSUNNY   77  63  61 N23G29    30.03S
$$

NEZ050>053-065>068-078-088>093-251800-
SOUTHEAST NEBRASKA

CITY           SKY/WX    TMP DP  RH WIND       PRES   REMARKS
LINCOLN        LGT RAIN  75  69  81 N14       29.98F
OMAHA EPPLEY   CLOUDY    77  70  79 NW12      29.95R
BEATRICE       PTSUNNY   78  73  85 MISG      29.98R
FALLS CITY     PTSUNNY   83  76  79 NW9G18    29.91R HX  91
NEBRASKA CITY  LGT RAIN  77  71  82 N9G22     29.93S
PLATTSMOUTH    CLOUDY    75  72  90 NW10G16   29.96R
$$

NEZ044-045-051>053-067-251800-
OMAHA AREA

CITY           SKY/WX    TMP DP  RH WIND       PRES   REMARKS
OMAHA EPPLEY   CLOUDY    77  70  79 NW12      29.95R
BLAIR          CLOUDY    76  69  78 NW9       29.98R
FREMONT        CLOUDY    78  67  69 NW17      30.01R
MILLARD        CLOUDY    76  69  78 NW12      29.98R
OFFUTT AFB     LGT RAIN  76  69  79 NW14      29.98R
PLATTSMOUTH    CLOUDY    75  72  90 NW10G16   29.96R
WAHOO          CLOUDY    76  68  77 N18       29.99R
$$


 

View Past Reports for Omaha, NE.

Products Courtesy of NOAA-NWS
NWS Information Parsing Script by Ken True at Saratoga Weather - Script by SE Lincoln Weather.

This data is offered only as a general guide to local weather conditions. It should not be relied upon in lieu of officially disseminated weather information for determining possible risk to persons or property. This site, including all information contained therein, is made available as is without warranties of any kind, either express or implied. The Vicarage Weather Feed© includes links to other sites for user convenience only. The content of any linked third-party site is not controlled by The Vicarage Weather Feed©. Access to any third-party website through The Vicarage Weather Feed©, regardless of whether or not the third-party site is a linked site, is entirely at the users own risk. Externally sourced content or material is excluded from The Vicarage Weather Feed© copyright and is the copyright and property of the respective provider. Skywarn® and the Skywarn® logo are registered trademarks of the National Oceanic and Atmospheric Administration, used with permission.